{"data":{"norad_id":63554,"epoch":"2026-09-19T17:24:52.402464Z","epoch_age_seconds":222657,"freshness":"STALE","line1":"1 63554U 25075G   26262.72560651  .00174181  00000+0  13282-2 0  9991","line2":"2 63554  42.9997  64.3773 0002141 272.0378  88.0244 15.70919039 83766","mean_motion":15.70919039,"eccentricity":0.0002141,"inclination_deg":42.9997,"raan_deg":64.3773,"arg_perigee_deg":272.0378,"mean_anomaly_deg":88.0244,"bstar":0.0013282,"rev_number":8376,"period_min":91.66608617314,"perigee_km":354.82732642669,"apogee_km":357.7109991456,"semimajor_km":6734.4061627861,"source":"CELESTRAK","updated_at":"2026-09-21T09:00:35.020319Z"}}